Mount Airy, NC

12:27 AM EST on December 10, 2019 (GMT -0500)
Mount Airy-Surry County

Weather History for KMWK - June, 2019

Change the Weather History Date:

Wednesday, June 5, 2019

  Actual Average (KINT) Record (KINT)
Temperature  
Mean Temperature 71 °F -  
Max Temperature 78 °F 79 °F 93 °F (1989)
Min Temperature 64 °F 61 °F 41 °F (1988)
Cooling Degree Days 6    
Growing Degree Days 21 (Base 50)    
Moisture  
Dew Point 67 °F    
Average Humidity 83    
Maximum Humidity 91    
Minimum Humidity 69    
Precipitation  
Precipitation 0.00 in - - ()
Sea Level Pressure  
Sea Level Pressure 30.03 in    
Wind  
Wind Speed 2 mph ()    
Max Wind Speed 8 mph    
Max Gust Speed -    
Visibility 9.5 miles    
Events Rain    
Averages and records for this station are not official NWS values.
T = Trace of Precipitation, MM = Missing Value Source: Averaged Metar Reports

Daily Weather History Graph

Daily Weather History Graph

Search for Another Location

Airport or City:

Astronomy

Jun. 05, 2019 Rise Set
Actual Time 6:04 AM EDT 8:37 PM EDT
Civil Twilight 5:34 AM EDT 9:07 PM EDT
Nautical Twilight 4:57 AM EDT 9:44 PM EDT
Astronomical Twilight 4:15 AM EDT 10:26 PM EDT
Moon 8:08 AM EDT (6/5) 11:02 PM EDT (6/5)
Length of Visible Light 15h 32m
Length of Day
14h 32m
Waxing Crescent, 6% of the Moon is Illuminated
Jun 5
Waxing Crescent
Jun 10
First Quarter
Jun 17
Full
Jun 25
Last Quarter
Jul 2
New

Hourly Weather History & Observations

Time (EDT) Temp. Dew Point Humidity Pressure Visibility Wind Dir Wind Speed Gust Speed Precip Events Conditions
12:00 AM 66.9 °F 60.8 °F 81% 30.12 in 10.0 mi Calm Calm - N/A   Scattered Clouds
12:20 AM 65.7 °F 60.1 °F 82% 30.12 in 10.0 mi Calm Calm - N/A   Scattered Clouds
12:40 AM 66.2 °F 60.4 °F 82% 30.13 in 10.0 mi Calm Calm - N/A   Mostly Cloudy
1:00 AM 66.7 °F 60.8 °F 81% 30.12 in 10.0 mi West 3.5 mph - N/A   Scattered Clouds
1:20 AM 65.5 °F 60.1 °F 83% 30.11 in 10.0 mi Calm Calm - N/A   Clear
1:40 AM 64.8 °F 60.3 °F 85% 30.11 in 10.0 mi Calm Calm - N/A   Clear
2:00 AM 65.7 °F 60.3 °F 83% 30.11 in 10.0 mi Calm Calm - N/A   Scattered Clouds
2:20 AM 68.5 °F 62.2 °F 80% 30.11 in 10.0 mi SSW 3.5 mph - N/A   Mostly Cloudy
2:40 AM 68.7 °F 63.0 °F 82% 30.11 in 10.0 mi Calm Calm - N/A   Mostly Cloudy
3:00 AM 69.8 °F 64.4 °F 83% 30.10 in 10.0 mi SSW 3.5 mph - N/A   Overcast
3:20 AM 69.8 °F 64.8 °F 84% 30.10 in 10.0 mi SSW 3.5 mph - N/A   Mostly Cloudy
3:40 AM 69.8 °F 64.9 °F 84% 30.10 in 10.0 mi SSW 3.5 mph - N/A   Mostly Cloudy
4:00 AM 69.8 °F 65.1 °F 85% 30.08 in 10.0 mi Calm Calm - N/A Rain Light Rain
4:40 AM 67.5 °F 63.9 °F 88% 30.08 in 10.0 mi Calm Calm - N/A   Light Drizzle
5:00 AM 67.3 °F 63.1 °F 87% 30.08 in 10.0 mi Calm Calm - N/A   Scattered Clouds
5:20 AM 66.7 °F 62.6 °F 86% 30.07 in 10.0 mi Calm Calm - N/A   Scattered Clouds
5:40 AM 66.4 °F 63.0 °F 89% 30.07 in 10.0 mi Calm Calm - N/A   Scattered Clouds
6:00 AM 66.4 °F 63.1 °F 89% 30.07 in 10.0 mi Calm Calm - N/A   Scattered Clouds
6:20 AM 66.4 °F 63.5 °F 90% 30.07 in 10.0 mi Calm Calm - N/A   Scattered Clouds
6:40 AM 67.3 °F 63.9 °F 89% 30.07 in 10.0 mi Calm Calm - N/A   Scattered Clouds
7:00 AM 67.8 °F 64.6 °F 89% 30.07 in 10.0 mi Calm Calm - N/A   Scattered Clouds
7:20 AM 68.5 °F 65.5 °F 90% 30.07 in 7.0 mi Calm Calm - N/A   Mostly Cloudy
7:40 AM 69.1 °F 66.0 °F 90% 30.07 in 7.0 mi Calm Calm - N/A   Overcast
8:00 AM 69.1 °F 66.2 °F 91% 30.07 in 7.0 mi Calm Calm - N/A   Overcast
8:20 AM 69.8 °F 66.7 °F 90% 30.07 in 7.0 mi Calm Calm - N/A   Overcast
8:40 AM 70.0 °F 66.9 °F 90% 30.08 in 7.0 mi Calm Calm - N/A   Overcast
9:00 AM 70.7 °F 67.3 °F 89% 30.08 in 10.0 mi SW 3.5 mph - N/A   Overcast
9:20 AM 71.2 °F 67.5 °F 88% 30.08 in 10.0 mi WSW 3.5 mph - N/A   Overcast
9:40 AM 72.3 °F 68.4 °F 87% 30.07 in 10.0 mi SSE 4.6 mph - N/A   Overcast
10:00 AM 72.5 °F 68.4 °F 87% 30.07 in 10.0 mi Calm Calm - N/A   Overcast
10:20 AM 72.5 °F 68.2 °F 86% 30.06 in 10.0 mi SSW 3.5 mph - N/A   Overcast
10:40 AM 72.9 °F 68.4 °F 86% 30.05 in 10.0 mi SSW 4.6 mph - N/A   Overcast
11:00 AM 74.3 °F 69.1 °F 84% 30.05 in 10.0 mi SSW 4.6 mph - N/A   Overcast
11:20 AM 75.9 °F 70.0 °F 82% 30.05 in 10.0 mi SSW 4.6 mph - N/A   Overcast
11:40 AM 76.1 °F 69.8 °F 81% 30.05 in 10.0 mi SSW 3.5 mph - N/A   Overcast
12:00 PM 77.0 °F 70.2 °F 79% 30.05 in 10.0 mi SSW 8.1 mph - N/A   Mostly Cloudy
12:20 PM 77.4 °F 70.2 °F 78% 30.05 in 10.0 mi SSW 4.6 mph - N/A   Mostly Cloudy
12:40 PM 77.4 °F 70.3 °F 79% 30.04 in 10.0 mi SSW 3.5 mph - N/A   Mostly Cloudy
1:00 PM 77.4 °F 70.2 °F 78% 30.04 in 10.0 mi WSW 5.8 mph - N/A   Scattered Clouds
1:20 PM 77.4 °F 70.9 °F 80% 30.04 in 10.0 mi WSW 4.6 mph - N/A   Light Drizzle
1:40 PM 77.4 °F 71.1 °F 81% 30.04 in 10.0 mi WSW 4.6 mph - N/A   Light Drizzle
2:00 PM 74.8 °F 70.2 °F 85% 30.05 in 5.0 mi West 5.8 mph - N/A Rain Rain
2:20 PM 73.0 °F 69.8 °F 90% 30.04 in 5.0 mi WSW 3.5 mph - N/A Rain Light Rain
2:40 PM 73.2 °F 70.0 °F 90% 30.03 in 7.0 mi Calm Calm - N/A Rain Light Rain
3:00 PM 74.8 °F 71.2 °F 88% 30.01 in 7.0 mi South 3.5 mph - N/A   Clear
3:20 PM 75.6 °F 70.9 °F 85% 30.00 in 10.0 mi WSW 3.5 mph - N/A   Scattered Clouds
3:40 PM 75.2 °F 70.2 °F 84% 30.00 in 10.0 mi West 3.5 mph - N/A   Clear
4:00 PM 74.8 °F 70.2 °F 85% 29.99 in 10.0 mi Calm Calm - N/A   Light Drizzle
4:20 PM 75.0 °F 70.2 °F 85% 29.98 in 7.0 mi Calm Calm - N/A   Light Drizzle
4:40 PM 75.7 °F 70.3 °F 83% 29.97 in 10.0 mi West 4.6 mph - N/A   Scattered Clouds
5:00 PM 77.4 °F 71.1 °F 81% 29.96 in 10.0 mi West 5.8 mph - N/A   Scattered Clouds
5:20 PM 77.4 °F 70.7 °F 80% 29.95 in 10.0 mi Calm Calm - N/A   Scattered Clouds
5:40 PM 78.1 °F 70.7 °F 78% 29.94 in 10.0 mi South 5.8 mph - N/A   Scattered Clouds
6:00 PM 78.3 °F 68.9 °F 73% 29.93 in 10.0 mi WSW 4.6 mph - N/A   Scattered Clouds
6:20 PM 78.6 °F 70.0 °F 75% 29.92 in 10.0 mi SW 5.8 mph - N/A   Clear
6:40 PM 78.3 °F 67.5 °F 69% 29.92 in 10.0 mi SW 3.5 mph - N/A   Clear
7:00 PM 78.1 °F 68.0 °F 71% 29.92 in 10.0 mi SW 3.5 mph - N/A   Clear
7:20 PM 77.9 °F 68.0 °F 71% 29.92 in 10.0 mi SW 3.5 mph - N/A   Clear
7:40 PM 77.4 °F 68.0 °F 73% 29.92 in 10.0 mi WSW 4.6 mph - N/A   Clear
8:00 PM 75.9 °F 68.0 °F 76% 29.92 in 10.0 mi Calm Calm - N/A   Clear
8:20 PM 75.0 °F 67.6 °F 78% 29.92 in 10.0 mi Calm Calm - N/A   Clear
8:40 PM 74.3 °F 67.3 °F 79% 29.93 in 10.0 mi Calm Calm - N/A   Clear
9:00 PM 74.3 °F 67.1 °F 78% 29.92 in 10.0 mi Calm Calm - N/A   Clear
9:20 PM 73.6 °F 66.4 °F 78% 29.93 in 10.0 mi Calm Calm - N/A   Clear
9:40 PM 73.6 °F 66.4 °F 78% 29.94 in 10.0 mi Calm Calm - N/A   Clear
10:00 PM 72.9 °F 66.4 °F 80% 29.95 in 10.0 mi Calm Calm - N/A   Clear
10:20 PM 72.5 °F 66.4 °F 81% 29.96 in 10.0 mi Calm Calm - N/A   Clear
10:40 PM 71.1 °F 66.2 °F 85% 29.96 in 10.0 mi Calm Calm - N/A   Clear
11:00 PM 72.5 °F 66.6 °F 82% 29.96 in 10.0 mi Calm Calm - N/A   Clear
11:20 PM 70.7 °F 65.7 °F 84% 29.96 in 10.0 mi Calm Calm - N/A   Clear
11:40 PM 70.7 °F 65.5 °F 83% 29.96 in 10.0 mi Calm Calm - N/A   Clear